Regional Weather Roundup
Issued by NWS

Home | Current Version | Previous Version | Text Only | Print | Product List | Glossary Off
Versions: 1 2 3 4 5 6 7 8 9 10 11 12 13 14 15 16 17 18 19 20 21 22 23 24 25 26 27 28 29 30 31 32 33 34 35 36 37 38 39 40 41 42 43 44 45 46 47 48 49 50

000
ASUS43 KFSD 012302
RWRSD

WEATHER ROUNDUP FOR SOUTH DAKOTA
NATIONAL WEATHER SERVICE SIOUX FALLS SD
600 PM CDT WED APR 01 2015

NOTE: "FAIR" INDICATES FEW OR NO CLOUDS BELOW 12,000 FEET WITH NO
SIGNIFICANT WEATHER AND/OR OBSTRUCTIONS TO VISIBILITY.


SDZ001>005-009-010-012>017-020000-
NORTHWEST AND NORTH CENTRAL SOUTH DAKOTA

CITY           SKY/WX    TMP DP  RH WIND       PRES   REMARKS
BUFFALO          N/A     55   8  15 W33       29.70R
FAITH            N/A     56  12  17 NW24G37   29.73R
MOBRIDGE       CLOUDY    60  28  29 NW21      29.65R
$$

SDZ012>016-024>037-041>051-057-063-072>074-020000-
SOUTHWEST AND SOUTH CENTRAL SOUTH DAKOTA

CITY           SKY/WX    TMP DP  RH WIND       PRES   REMARKS
RAPID CTY ARPT PTSUNNY   54  22  28 NW24G37   29.78R
PIERRE         MOSUNNY   64  25  22 NW29G37   29.66R
CUSTER         CLOUDY    43  21  41 NW10G17   29.80R
ELLSWORTH AFB  PTSUNNY   53  21  28 NW25G32   29.77R
PHILIP         MOSUNNY   59  19  21 NW24G37   29.74R
PINE RIDGE     PTSUNNY   56  29  35 N18G28    29.76R
SPEARFISH      FAIR      48  19  32 W14       29.82S
WINNER         FAIR      67  28  23 NW21      29.68R
$$

SDZ004>011-016>023-039-040-020000-
NORTHEAST SOUTH DAKOTA

CITY           SKY/WX    TMP DP  RH WIND       PRES   REMARKS
ABERDEEN       MOSUNNY   68  31  25 NW22G30   29.58R
WATERTOWN      CLOUDY    67  41  38 NW13      29.55R
BROOKINGS      CLOUDY    66  37  34 NW16      29.54R
SISSETON         N/A     65  41  41 NW29      29.52R
$$

SDZ017-020-022-023-036>040-048>070-020000-
SOUTHEAST SOUTH DAKOTA

CITY           SKY/WX    TMP DP  RH WIND       PRES   REMARKS
SIOUX FALLS    CLOUDY    71  34  25 NW20      29.51R
HURON          CLOUDY    69  37  30 NW25G32   29.58R
MITCHELL       CLOUDY    70  40  33 NW16      29.59R
YANKTON        CLOUDY    73  37  27 NW21G28   29.54R
$$

ABBREVIATIONS USED IN REMARKS
   TC - TEMPERATURE IN CELSIUS
  WCI - WIND CHILL INDEX
   HX - HEAT INDEX
  VSB - VISIBILITY



USA.gov is the U.S. government's official web portal to all federal, state and local government web resources and services.